"2022-06-12 00:01:00",2977605,2.058667,197.5329,2.962397,0.08389412,2.18,0,1.36,147.0678,3.064219,0.08318653,1.47,0,-999,0,10.99,82.6,11.1,11.01,0.2,0,0,9.78,13.24,0.2,102.357,3.313,3.314,3.31,100,0,0,0,113.7,176.7,176.7
"2022-06-12 00:02:00",2977606,2.022667,196.666,2.29931,0.07792877,2.14,0,1.387333,149.2664,3.192341,0.07018705,1.49,0,-999,0,11,82.3,11.12,11.03,0.2,0,0,9.77,13.25,0.2,102.3563,3.315,3.315,3.312,100,0,0,0,113.7,176.7,176.7
"2022-06-12 00:03:00",2977607,1.966667,197.4016,4.422748,0.05460972,2.08,0,1.342667,144.4006,3.199397,0.1153237,1.49,0,-999,0,11.01,82.2,11.15,11.03,0.2,0,0,9.75,13.23,0.2,102.3556,3.311,3.315,3.311,100,0,0,0,113.7,176.7,176.7
"2022-06-12 00:04:00",2977608,1.922667,196.1362,4.044456,0.1288134,2.11,0,1.399333,144.3342,3.175866,0.09636506,1.53,0,-999,0,11,82.3,11.16,11.03,0.2,0,0,9.75,13.24,0.2,102.3553,3.312,3.316,3.312,100,0,0,0,113.7,176.7,176.7
"2022-06-12 00:05:00",2977609,1.948,196.9321,3.585017,0.1174847,2.12,0,1.336,142.266,3.042709,0.08436429,1.51,0,-999,0,11.05,82.2,11.17,11.05,0.2,0,0,9.75,13.24,0.2,102.3544,3.312,3.313,3.312,100,0,0,0,113.7,176.7,176.7
"2022-06-12 00:06:00",2977610,1.986,195.2037,6.465325,0.1454556,2.27,0,1.329333,142.1322,2.917118,0.1044648,1.49,0,-999,0,11.1,81.9,11.17,11.07,0.2,0,0,9.74,13.25,0.2,102.3563,3.315,3.315,3.312,100,0,0,0,113.7,176.7,176.7
"2022-06-12 00:07:00",2977611,1.936667,197.9293,6.216467,0.1733846,2.33,0,1.259333,144.986,5.743557,0.1172727,1.49,0,-999,0,11.1,81.8,11.17,11.06,0.2,0,0,9.73,13.24,0.2,102.3574,3.313,3.317,3.311,100,0,0,0,113.7,176.7,176.7
"2022-06-12 00:08:00",2977612,2.032,197.2655,5.5981,0.09064216,2.19,0,1.344667,140.5339,2.362428,0.06550998,1.47,0,-999,0,11.1,81.8,11.17,11.09,0.2,0,0,9.71,13.25,0.2,102.3603,3.315,3.316,3.312,100,0,0,0,113.7,176.7,176.7
"2022-06-12 00:09:00",2977613,1.985333,198.7996,4.818964,0.1585714,2.36,0,1.262,141.5324,3.738848,0.09403546,1.4,0,-999,0,11.1,81.7,11.17,11.07,0.2,0,0,9.71,13.24,0.2,102.3587,3.313,3.315,3.312,100,0,0,0,113.7,176.7,176.7
"2022-06-12 00:10:00",2977614,1.986,198.1356,5.015682,0.192797,2.38,0,1.164667,141.4623,4.422459,0.1028829,1.32,0,-999,0,11.1,81.7,11.18,11.09,0.2,0,0,9.71,13.24,0.2,102.3654,3.312,3.316,3.312,100,0,0,0,113.7,176.7,176.7
"2022-06-12 00:11:00",2977615,1.792667,199.7977,4.677758,0.1681058,2.23,0,1.148667,143.1324,4.60082,0.1131881,1.36,0,-999,0,11.1,81.6,11.18,11.11,0.2,0,0,9.7,13.24,0.2,102.3642,3.315,3.316,3.311,100,0,0,0,113.7,176.7,176.7
"2022-06-12 00:12:00",2977616,1.928,204.397,5.546861,0.2504449,2.46,0,1.099333,145.9121,6.636783,0.1063621,1.36,0,-999,0,11.1,81.5,11.21,11.12,0.2,0,0,9.69,13.24,0.2,102.3633,3.315,3.316,3.312,100,0,0,0,113.7,176.7,176.7
"2022-06-12 00:13:00",2977617,1.918667,206.6741,7.623225,0.2327192,2.43,0,1.1,155.4647,5.768475,0.09493856,1.21,0,-999,0,11.1,81.5,11.18,11.12,0.2,0,0,9.68,13.24,0.2,102.3636,3.312,3.316,3.312,100,0,0,0,113.7,176.7,176.7
"2022-06-12 00:14:00",2977618,2.058667,214.2009,4.083019,0.1493036,2.31,0,1.076,154.5344,4.687752,0.07069182,1.15,0,-999,0,11.1,81.4,11.18,11.12,0.2,0,0,9.66,13.24,0.2,102.3644,3.315,3.315,3.312,100,0,0,0,113.7,176.7,176.7
"2022-06-12 00:15:00",2977619,1.960667,213.7333,5.077527,0.1215164,2.16,0,0.9226667,160.7277,6.958676,0.1483,1.36,0,-999,0,11.1,81.3,11.18,11.13,0.2,0,0,9.66,13.24,0.2,102.3611,3.312,3.317,3.312,100,0,0,0,113.7,176.7,176.7
"2022-06-12 00:16:00",2977620,2.226666,215.5949,6.381031,0.1560627,2.53,0,0.97,171.1827,10.37478,0.1795179,1.32,0,-999,0,11.13,81.5,11.2,11.18,0.2,0,0,9.66,13.24,0.2,102.3597,3.312,3.317,3.312,100,0,0,0,113.7,176.7,176.7
"2022-06-12 00:17:00",2977621,2.174667,222.6662,3.299584,0.1608671,2.48,0,0.8626667,187.2029,6.22903,0.05195725,0.95,0,-999,0,11.21,81.7,11.29,11.22,0.2,0,0,9.64,13.23,0.2,102.3634,3.313,3.315,3.311,100,0,0,0,113.7,176.7,176.7
"2022-06-12 00:18:00",2977622,2.014667,222.201,4.260894,0.1359837,2.27,0,0.8673334,196.9336,2.839033,0.09525171,0.99,0,-999,0,11.29,81.4,11.3,11.22,0.2,0,0,9.64,13.24,0.2,102.3625,3.311,3.315,3.311,100,0,0,0,113.7,176.7,176.7
"2022-06-12 00:19:00",2977623,2,227.3959,6.465356,0.1981918,2.55,0,0.7046666,191.2522,6.611837,0.06561165,0.86,0,-999,0,11.27,80.8,11.31,11.21,0.2,0,0,9.63,13.25,0.2,102.3608,3.315,3.316,3.312,100,0,0,0,113.7,176.7,176.7
"2022-06-12 00:20:00",2977624,2.248667,229.0642,4.280032,0.2279435,2.79,0,0.9440001,208.4685,6.809256,0.2135353,1.26,0,-999,0,11.3,80.7,11.33,11.22,0.2,0,0,9.62,13.24,0.2,102.3603,3.312,3.316,3.312,100,0,0,0,113.7,176.7,176.7
"2022-06-12 00:21:00",2977625,2.46,229.399,2.799088,0.2119434,2.8,0,0.9899999,216.8664,4.454361,0.1165619,1.16,0,-999,0,11.3,80.5,11.33,11.23,0.2,0,0,9.62,13.25,0.2,102.3584,3.316,3.316,3.312,100,0,0,0,113.7,176.7,176.7
"2022-06-12 00:22:00",2977626,2.437333,233.4651,2.962562,0.2229938,2.8,0,0.85,220.8018,5.95653,0.2042221,1.33,0,-999,0,11.33,79.76,11.38,11.24,0.2,0,0,9.61,13.24,0.2,102.3564,3.315,3.316,3.311,100,0,0,0,113.7,176.7,176.7
"2022-06-12 00:23:00",2977627,2.260666,231.6658,2.240412,0.1402126,2.54,0,0.904,226.5316,4.715501,0.1776063,1.32,0,-999,0,11.44,79.11,11.51,11.34,0.2,0,0,9.59,13.24,0.2,102.3536,3.313,3.316,3.312,100,0,0,0,113.7,176.7,176.7
"2022-06-12 00:24:00",2977628,2.156667,230.1334,1.087016,0.07020607,2.33,0,1.013333,225.0658,2.669351,0.08403703,1.13,0,-999,0,11.5,78.94,11.6,11.38,0.2,0,0,9.59,13.24,0.2,102.3544,3.311,3.316,3.31,100,0,0,0,113.7,176.7,176.7
"2022-06-12 00:25:00",2977629,2.14,231.2,1.557608,0.1440833,2.37,0,0.9553334,223.6655,3.378679,0.09149621,1.1,0,-999,0,11.58,78.93,11.68,11.44,0.2,0,0,9.58,13.24,0.2,102.3512,3.312,3.313,3.311,100,0,0,0,113.7,176.7,176.7
"2022-06-12 00:26:00",2977630,2.09,228.0677,3.213251,0.1690759,2.52,0,0.9433333,217.7335,2.976657,0.08088399,1.09,0,-999,0,11.62,79.05,11.75,11.5,0.2,0,0,9.57,13.24,0.2,102.353,3.313,3.315,3.312,100,0,0,0,113.7,176.7,176.7
"2022-06-12 00:27:00",2977631,2.18,226.4668,3.68529,0.1775387,2.57,0,0.9173333,215.4024,3.944943,0.0599407,1.05,0,-999,0,11.74,78.79,11.85,11.57,0.2,0,0,9.57,13.24,0.2,102.3525,3.315,3.315,3.312,100,0,0,0,113.7,176.7,176.7
"2022-06-12 00:28:00",2977632,2.059333,224.1998,2.637966,0.117102,2.29,0,0.9793332,213.3996,5.928548,0.0797886,1.13,0,-999,0,11.8,78.36,11.91,11.64,0.2,0,0,9.56,13.24,0.2,102.3466,3.313,3.316,3.312,100,0,0,0,113.7,176.7,176.7
"2022-06-12 00:29:00",2977633,2.040667,224.601,3.136507,0.1249782,2.23,0,0.9886667,216.0665,2.174258,0.06386098,1.16,0,-999,0,11.89,78.03,11.99,11.72,0.2,0,0,9.55,13.24,0.2,102.3497,3.311,3.313,3.309,100,0,0,0,113.7,176.7,176.7
"2022-06-12 00:30:00",2977634,2.056,223.069,4.072713,0.1413648,2.28,0,0.8886667,212.7943,6.722817,0.1182013,1.09,0,-999,0,11.99,77.67,12.05,11.8,0.2,0,0,9.54,13.24,0.2,102.3491,3.311,3.316,3.311,100,0,0,0,113.7,176.7,176.7
"2022-06-12 00:31:00",2977635,1.978,224.3999,3.071889,0.2034437,2.21,0,0.8913333,213.5332,5.374204,0.05110338,1,0,-999,0,12,77.75,12.09,11.83,0.2,0,0,9.52,13.24,0.2,102.3476,3.312,3.313,3.31,100,0,0,0,113.7,176.7,176.7
"2022-06-12 00:32:00",2977636,2.017333,225.2625,6.6165,0.1458523,2.34,0,0.9793333,208.9357,5.4572,0.0679673,1.07,0,-999,0,12,77.85,12.12,11.88,0.2,0,0,9.52,13.24,0.2,102.3473,3.312,3.315,3.31,100,0,0,0,113.7,176.7,176.7
"2022-06-12 00:33:00",2977637,1.910667,222.2039,4.561534,0.1352758,2.23,0,0.9873332,208.8676,3.895311,0.06668001,1.11,0,-999,0,12,77.71,12.09,11.89,0.2,0,0,9.52,13.25,0.2,102.3478,3.312,3.312,3.311,100,0,0,0,113.7,176.7,176.7
"2022-06-12 00:34:00",2977638,2.012667,224.2004,3.249392,0.2524141,2.43,0,0.9993334,211.3378,4.52404,0.08346389,1.15,0,-999,0,12,77.74,12.09,11.89,0.2,0,0,9.51,13.25,0.2,102.3487,3.315,3.315,3.312,100,0,0,0,113.7,176.7,176.7
"2022-06-12 00:35:00",2977639,1.971333,221.3346,4.043436,0.2065225,2.2,0,1.233333,213.5358,4.111682,0.1428597,1.49,0,-999,0,12,77.66,12.09,11.91,0.2,0,0,9.5,13.25,0.2,102.3461,3.315,3.315,3.313,100,0,0,0,113.7,176.7,176.7
"2022-06-12 00:36:00",2977640,2.192,223.0012,3.758874,0.2656614,2.84,0,1.306667,209.0627,3.508313,0.1488027,1.71,0,-999,0,12,77.59,12.04,11.9,0.2,0,0,9.49,13.25,0.2,102.3455,3.315,3.315,3.312,100,0,0,0,113.7,176.7,176.7
"2022-06-12 00:37:00",2977641,2.126,223.8678,4.333498,0.1383137,2.31,0,1.226,206.7327,5.129646,0.1245686,1.46,0,-999,0,12,77.86,12.06,11.93,0.2,0,0,9.48,13.26,0.2,102.3436,3.316,3.316,3.315,100,0,0,0,113.7,176.6,176.7
"2022-06-12 00:38:00",2977642,2.414667,222.2088,5.748188,0.2880478,2.88,0,1.122667,210.3344,7.05488,0.2340218,1.52,0,-999,0,12,78.01,12.08,11.97,0.2,0,0,9.48,13.24,0.2,102.346,3.311,3.315,3.311,100,0,0,0,113.7,176.6,176.7
"2022-06-12 00:39:00",2977643,2.258,223.4573,4.724417,0.3374848,3.28,0,1.182667,207.7331,5.433234,0.1694881,1.66,0,-999,0,12,77.97,12.11,12,0.2,0,0,9.46,13.25,0.2,102.345,3.312,3.315,3.311,100,0,0,0,113.7,176.6,176.7
"2022-06-12 00:40:00",2977644,2.552,222.7322,3.51055,0.3050727,3.09,0,1.291333,208.6718,5.063282,0.2028749,1.65,0,-999,0,12.06,77.6,12.14,12.01,0.2,0,0,9.46,13.24,0.2,102.339,3.312,3.315,3.311,100,0,0,0,113.7,176.6,176.7
"2022-06-12 00:41:00",2977645,2.716667,221.9363,5.742527,0.2471886,3.1,0,1.388,208.5125,10.39094,0.1799704,1.64,0,-999,0,12.1,77.71,12.17,12.06,0.2,0,0,9.45,13.25,0.2,102.3432,3.312,3.312,3.31,100,0,0,0,113.7,176.6,176.6
"2022-06-12 00:42:00",2977646,2.459333,229.0027,7.140316,0.2582626,2.92,0,1.232,217.9517,8.065126,0.1273944,1.49,0,-999,0,12.1,77.68,12.18,12.08,0.2,0,0,9.44,13.24,0.2,102.3405,3.313,3.313,3.311,100,0,0,0,113.7,176.6,176.6
"2022-06-12 00:43:00",2977647,2.489333,231.3997,5.29963,0.2171779,2.82,0,1.151333,220.5346,5.160177,0.1019717,1.34,0,-999,0,12.1,77.37,12.19,12.1,0.2,0,0,9.44,13.24,0.2,102.3399,3.313,3.313,3.311,100,0,0,0,113.7,176.6,176.6
"2022-06-12 00:44:00",2977648,2.441334,232.1356,3.59248,0.1954437,2.73,0,1.37,226.8662,5.792537,0.2772724,2.12,0,-999,0,12.1,77.53,12.21,12.12,0.2,0,0,9.44,13.25,0.2,102.3383,3.314,3.315,3.312,100,0,0,0,113.7,176.6,176.6
"2022-06-12 00:45:00",2977649,2.646,237.799,2.534158,0.1314433,2.86,0,1.301333,233.8362,8.016475,0.1443545,1.58,0,-999,0,12.15,77.52,12.28,12.16,0.2,0,0,9.44,13.24,0.2,102.3381,3.313,3.316,3.31,100,0,0,0,113.7,176.6,176.6
"2022-06-12 00:46:00",2977650,2.594666,242.0032,4.589097,0.1983218,3,0,1.452,233.0096,6.579656,0.1868047,1.88,0,-999,0,12.16,77.57,12.31,12.19,0.2,0,0,9.44,13.24,0.2,102.3431,3.312,3.313,3.31,100,0,0,0,113.7,176.6,176.6
"2022-06-12 00:47:00",2977651,2.642,243.8677,5.095963,0.2166472,3.05,0,1.261334,238.3283,5.580153,0.1796614,1.56,0,-999,0,12.2,77.55,12.35,12.23,0.2,0,0,9.44,13.25,0.2,102.3388,3.312,3.313,3.312,100,0,0,0,113.7,176.6,176.6
"2022-06-12 00:48:00",2977652,2.577333,248.8018,3.761901,0.2661195,2.92,0,1.243333,241.6695,4.465796,0.1732307,1.48,0,-999,0,12.17,77.61,12.31,12.22,0.2,0,0,9.44,13.24,0.2,102.3364,3.312,3.313,3.31,100,0,0,0,113.7,176.6,176.6
"2022-06-12 00:49:00",2977653,2.938667,245.5215,6.178501,0.3701328,3.6,0,1.471333,237.6632,4.782441,0.2784688,1.92,0,-999,0,12.1,77.52,12.27,12.18,0.2,0,0,9.44,13.24,0.2,102.3419,3.312,3.313,3.311,100,0,0,0,113.7,176.6,176.6
"2022-06-12 00:50:00",2977654,3.130666,244.8728,8.38599,0.3666691,3.91,0,1.678,235.4693,3.996493,0.2002731,2.32,0,-999,0,12.1,77.58,12.27,12.2,0.2,0,0,9.44,13.25,0.2,102.3387,3.312,3.313,3.312,100,0,0,0,113.7,176.6,176.6
"2022-06-12 00:51:00",2977655,2.896667,244.736,4.372386,0.29154,3.53,0,1.667333,242.0696,6.452142,0.2786507,2.25,0,-999,0,12.17,77.23,12.33,12.25,0.2,0,0,9.44,13.24,0.2,102.3375,3.312,3.313,3.309,100,0,0,0,113.7,176.6,176.6
"2022-06-12 00:52:00",2977656,3.267334,239.9334,4.999493,0.4128998,4.13,0,1.66,233.4056,4.724833,0.1382269,1.92,0,-999,0,12.16,76.93,12.3,12.23,0.2,0,0,9.44,13.24,0.2,102.3407,3.312,3.312,3.308,100,0,0,0,113.7,176.6,176.6
"2022-06-12 00:53:00",2977657,2.724667,235.2615,3.692579,0.3922221,3.62,0,1.64,230.5285,6.578078,0.2777528,2.34,0,-999,0,12.2,77.32,12.3,12.22,0.2,0,0,9.44,13.25,0.2,102.3383,3.312,3.315,3.31,100,0,0,0,113.7,176.6,176.6
"2022-06-12 00:54:00",2977658,2.716,233.9328,3.491553,0.2203573,3.07,0,1.404,222.1972,4.035366,0.08731552,1.61,0,-999,0,12.17,77.59,12.22,12.19,0.2,0,0,9.44,13.24,0.2,102.3419,3.313,3.313,3.309,100,0,0,0,113.7,176.6,176.6
"2022-06-12 00:55:00",2977659,2.866667,231.3995,2.443709,0.2275278,3.16,0,1.432,222.0665,3.905478,0.1149028,1.64,0,-999,0,12.1,77.86,12.16,12.16,0.2,0,0,9.44,13.24,0.2,102.34,3.312,3.313,3.31,100,0,0,0,113.7,176.6,176.6
"2022-06-12 00:56:00",2977660,2.819333,231.6669,2.699647,0.1622947,3.14,0,1.462,221.5979,3.21953,0.09282241,1.62,0,-999,0,12.11,77.95,12.18,12.15,0.2,0,0,9.46,13.24,0.2,102.3382,3.312,3.313,3.312,100,0,0,0,113.7,176.6,176.6
"2022-06-12 00:57:00",2977661,2.75,230.8003,2.878288,0.1447757,2.99,0,1.456,223.7331,3.128996,0.09002221,1.62,0,-999,0,12.1,77.97,12.12,12.11,0.2,0,0,9.46,13.23,0.2,102.3377,3.311,3.313,3.309,100,0,0,0,113.7,176.6,176.6
"2022-06-12 00:58:00",2977662,2.766667,233.1277,4.851912,0.2719477,3.23,0,1.521333,228.536,4.423302,0.1421205,1.79,0,-999,0,12.1,78.09,12.13,12.11,0.2,0,0,9.46,13.25,0.2,102.3374,3.312,3.313,3.31,100,0,0,0,113.7,176.6,176.6
"2022-06-12 00:59:00",2977663,2.750667,233.5335,1.961792,0.2020385,3.16,0,1.428667,230.8002,3.467449,0.0956986,1.63,0,-999,0,12.1,78.24,12.17,12.15,0.2,0,0,9.46,13.24,0.2,102.3403,3.31,3.312,3.31,100,0,0,0,113.7,176.6,176.6
"2022-06-12 01:00:00",2977664,2.406667,231.2667,1.805981,0.09278414,2.63,0,1.245333,229.6003,2.090959,0.07526544,1.39,0,-999,0,12.1,78.5,12.15,12.14,0.2,0,0,9.47,13.24,0.2,102.3394,3.313,3.315,3.308,100,0,0,0,113.7,176.6,176.6
"2022-06-12 01:01:00",2977665,2.301333,230.1335,2.334022,0.1978507,2.77,0,1.074,224.7992,2.586733,0.0845222,1.22,0,-999,0,12.06,78.82,12.1,12.12,0.2,0,0,9.48,13.24,0.2,102.3389,3.311,3.313,3.31,100,0,0,0,113.7,176.6,176.6
"2022-06-12 01:02:00",2977666,2.324,229.0003,3.097948,0.1604494,2.72,0,0.9713333,222.4635,4.159602,0.09783433,1.11,0,-999,0,11.99,79.01,12.01,12.04,0.2,0,0,9.48,13.24,0.2,102.3374,3.312,3.313,3.31,100,0,0,0,113.7,176.6,176.6
"2022-06-12 01:03:00",2977667,2.304,228.0681,3.233601,0.1355384,2.56,0,0.9393333,216.266,2.976591,0.07325449,1.08,0,-999,0,11.93,79.06,11.96,11.98,0.2,0,0,9.48,13.24,0.2,102.3372,3.314,3.315,3.31,100,0,0,0,113.7,176.6,176.6
"2022-06-12 01:04:00",2977668,2.293334,230.667,1.618931,0.1531303,2.63,0,1.008,218.267,2.719321,0.06685305,1.16,0,-999,0,11.9,79.11,11.94,11.96,0.2,0,0,9.48,13.24,0.2,102.3352,3.312,3.314,3.312,100,0,0,0,113.7,176.6,176.6
"2022-06-12 01:05:00",2977669,2.221333,228.4655,4.176637,0.1080658,2.47,0,0.9266666,218.3334,2.086834,0.08791409,1.05,0,-999,0,11.9,79.26,11.95,11.96,0.2,0,0,9.48,13.24,0.2,102.34,3.314,3.315,3.309,100,0,0,0,113.7,176.6,176.6
"2022-06-12 01:06:00",2977670,2.23,230.7349,4.820638,0.1490861,2.45,0,0.87,224.5343,3.441867,0.0406612,0.93,0,-999,0,11.9,79.45,11.95,11.97,0.2,0,0,9.48,13.24,0.2,102.3379,3.311,3.315,3.311,100,0,0,0,113.7,176.6,176.6
"2022-06-12 01:07:00",2977671,2.054,232.936,3.565809,0.1695405,2.35,0,0.7780001,225.654,8.159395,0.1121428,1.07,0,-999,0,11.9,79.64,11.91,11.95,0.2,0,0,9.48,13.24,0.2,102.3358,3.312,3.314,3.31,100,0,0,0,113.7,176.6,176.6
"2022-06-12 01:08:00",2977672,2.076,231.3333,1.490558,0.1570478,2.48,0,0.8313333,226.0672,2.976262,0.09251068,1.03,0,-999,0,11.9,79.95,11.93,11.96,0.2,0,0,9.48,13.23,0.2,102.3356,3.312,3.314,3.308,100,0,0,0,113.7,176.6,176.6
"2022-06-12 01:09:00",2977673,2.190667,230.1327,1.995051,0.1531651,2.47,0,0.9253334,225.2005,3.780378,0.1737763,1.26,0,-999,0,11.89,80.4,11.9,11.95,0.2,0,0,9.48,13.24,0.2,102.3383,3.309,3.314,3.309,100,0,0,0,113.7,176.6,176.6
"2022-06-12 01:10:00",2977674,2.172667,231.3937,4.626515,0.2155757,2.68,0,1.001333,221.761,7.812031,0.1931102,1.4,0,-999,0,11.89,80.4,11.93,11.97,0.2,0,0,9.48,13.24,0.2,102.3351,3.31,3.311,3.308,100,0,0,0,113.7,176.6,176.6
"2022-06-12 01:11:00",2977675,2.064667,230.2645,4.054567,0.148722,2.43,0,0.9026668,223.8691,5.172769,0.09963046,1.11,0,-999,0,11.9,80.5,11.95,11.97,0.2,0,0,9.47,13.24,0.2,102.3383,3.312,3.312,3.31,100,0,0,0,113.7,176.6,176.6
"2022-06-12 01:12:00",2977676,2.028,228.1396,4.613663,0.2067591,2.36,0,0.7713333,220.9935,6.649667,0.1120635,0.99,0,-999,0,11.9,80.7,11.97,11.98,0.2,0,0,9.46,13.23,0.2,102.3366,3.308,3.313,3.308,100,0,0,0,113.7,176.6,176.6
"2022-06-12 01:13:00",2977677,2.044,223.7994,4.352816,0.1949632,2.3,0,0.9353333,216.9267,6.243165,0.1685573,1.48,0,-999,0,11.9,80.7,11.97,11.99,0.2,0,0,9.46,13.24,0.2,102.3319,3.311,3.312,3.308,100,0,0,0,113.7,176.6,176.6
"2022-06-12 01:14:00",2977678,2.136667,225.4585,5.054063,0.2116811,2.67,0,0.8200001,209.0012,5.341546,0.07848568,0.97,0,-999,0,11.9,80.7,11.93,11.93,0.2,0,0,9.46,13.24,0.2,102.3343,3.311,3.313,3.31,100,0,0,0,113.7,176.6,176.6
"2022-06-12 01:15:00",2977679,2.313333,221.9333,4.138252,0.1976079,2.63,0,0.9786667,209.3984,6.786898,0.1473258,1.26,0,-999,0,11.9,80.4,11.9,11.9,0.2,0,0,9.46,13.25,0.2,102.3328,3.312,3.315,3.311,100,0,0,0,113.7,176.6,176.6
"2022-06-12 01:16:00",2977680,2.498666,221.9986,3.424611,0.2280312,2.83,0,1.222667,212.9451,6.35529,0.1279305,1.58,0,-999,0,11.9,79.86,11.89,11.91,0.2,0,0,9.44,13.25,0.2,102.3346,3.312,3.315,3.311,100,0,0,0,113.7,176.6,176.6
"2022-06-12 01:17:00",2977681,2.570667,222.4668,2.753412,0.1684623,2.84,0,1.307333,214.8011,3.505152,0.1078559,1.48,0,-999,0,11.9,79.61,11.88,11.89,0.2,0,0,9.44,13.24,0.2,102.3304,3.312,3.312,3.31,100,0,0,0,113.7,176.6,176.6
"2022-06-12 01:18:00",2977682,2.865333,220.8662,2.445672,0.2157426,3.29,0,1.281333,216.801,4.561685,0.1572203,1.71,0,-999,0,11.89,79.85,11.89,11.87,0.2,0,0,9.44,13.24,0.2,102.3379,3.312,3.315,3.312,100,0,0,0,113.7,176.6,176.6
"2022-06-12 01:19:00",2977683,2.868667,221.4661,3.518421,0.2275043,3.27,0,1.182667,218.6062,5.422529,0.08925369,1.31,0,-999,0,11.9,79.93,11.89,11.88,0.2,0,0,9.44,13.24,0.2,102.3335,3.309,3.314,3.309,100,0,0,0,113.7,176.6,176.6
"2022-06-12 01:20:00",2977684,2.587333,222.1314,4.25485,0.266745,3.15,0,1.294,218.2671,2.953815,0.1424453,1.51,0,-999,0,11.87,80.2,11.89,11.87,0.2,0,0,9.44,13.24,0.2,102.3315,3.311,3.315,3.309,100,0,0,0,113.7,176.6,176.6
"2022-06-12 01:21:00",2977685,2.390667,220.331,3.37836,0.1760858,2.71,0,1.07,213.466,4.542078,0.148728,1.38,0,-999,0,11.8,80.7,11.86,11.86,0.2,0,0,9.44,13.25,0.2,102.3334,3.314,3.315,3.312,100,0,0,0,113.7,176.6,176.6
"2022-06-12 01:22:00",2977686,2.029334,214.9337,2.567649,0.110361,2.24,0,0.8000001,206.6012,5.839493,0.1649242,1.18,0,-999,0,11.8,81.5,11.82,11.84,0.2,0,0,9.44,13.24,0.2,102.3322,3.31,3.314,3.31,100,0,0,0,113.7,176.6,176.6
"2022-06-12 01:23:00",2977687,2.037333,217.0666,2.669534,0.1862781,2.33,0,0.6713333,202.2854,7.654529,0.09611568,0.85,0,-999,0,11.8,81.8,11.81,11.82,0.2,0,0,9.44,13.24,0.2,102.3297,3.31,3.31,3.309,100,0,0,0,113.7,176.6,176.6
"2022-06-12 01:24:00",2977688,1.836,218.7979,3.227409,0.196835,2.25,0,0.39,195.3162,14.61475,0.06713172,0.5,0,-999,0,11.71,81.5,11.76,11.78,0.2,0,0,9.44,13.24,0.2,102.3326,3.31,3.312,3.308,100,0,0,0,113.7,176.6,176.6
"2022-06-12 01:25:00",2977689,1.669333,223.0661,4.904336,0.1384902,1.93,0,0.2193333,232.4781,60.7072,0.09629584,0.49,0,-999,0,11.7,81.2,11.71,11.74,0.2,0,0,9.44,13.25,0.2,102.3366,3.311,3.312,3.31,100,0,0,0,113.7,176.6,176.6
"2022-06-12 01:26:00",2977690,1.402,228.7332,3.939738,0.09785704,1.59,0,0.2686667,345.2665,29.68538,0.1024934,0.48,0,-999,0,11.59,80.8,11.59,11.63,0.2,0,0,9.44,13.24,0.2,102.336,3.312,3.312,3.31,100,0,0,0,113.7,176.6,176.6
"2022-06-12 01:27:00",2977691,1.077333,246.9492,7.463291,0.106111,1.31,0,0.6973333,6.876951,8.090844,0.1059224,0.88,0,-999,0,11.5,80.9,11.52,11.56,0.2,0,0,9.43,13.24,0.2,102.3379,3.312,3.314,3.31,100,0,0,0,113.7,176.6,176.6
"2022-06-12 01:28:00",2977692,0.8426667,274.9976,13.84777,0.115497,1,0,0.9233332,2.799687,2.809154,0.09554524,1.08,0,-999,0,11.41,81.1,11.48,11.53,0.2,0,0,9.41,13.24,0.2,102.3384,3.312,3.315,3.31,100,0,0,0,113.7,176.6,176.6
"2022-06-12 01:29:00",2977693,0.8153332,283.3953,8.689609,0.15941,0.96,0,0.9053333,359.2664,4.200765,0.04842405,1,0,-999,0,11.4,81.7,11.46,11.53,0.2,0,0,9.41,13.24,0.2,102.3374,3.312,3.312,3.309,100,0,0,0,113.7,176.6,176.6
"2022-06-12 01:30:00",2977694,0.7526667,300.1938,8.602523,0.0934856,0.98,0,1.092,15.26457,10.15627,0.1650939,1.38,0,-999,0,11.35,82.3,11.38,11.51,0.2,0,0,9.41,13.24,0.2,102.339,3.311,3.312,3.31,100,0,0,0,113.7,176.6,176.6
"2022-06-12 01:31:00",2977695,0.65,311.9328,12.92717,0.07393692,0.79,0,1.233333,27.80122,2.902364,0.1354335,1.48,0,-999,0,11.03,82.6,11.04,11.28,0.2,0,0,9.4,13.25,0.2,102.3448,3.314,3.315,3.31,100,0,0,0,113.7,176.6,176.6
"2022-06-12 01:32:00",2977696,0.5933333,310.332,15.61748,0.09768429,0.8,0,1.157333,35.06493,4.248936,0.1187415,1.31,0,-999,0,10.6,82,10.64,10.92,0.2,0,0,9.39,13.25,0.2,102.3406,3.312,3.314,3.311,100,0,0,0,113.7,176.6,176.6
"2022-06-12 01:33:00",2977697,0.4406666,292.0915,17.29439,0.1355221,0.8,0,1.210667,47.66688,2.385041,0.1830289,1.49,0,-999,0,10.35,82.3,10.41,10.64,0.2,0,0,9.39,13.24,0.2,102.338,3.314,3.314,3.311,100,0,0,0,113.7,176.6,176.6
"2022-06-12 01:34:00",2977698,0.276,316.306,63.96625,0.1591142,0.56,0,1.231333,53.19991,1.720363,0.1235512,1.51,0,-999,0,10.18,83.3,10.3,10.47,0.2,0,0,9.39,13.26,0.2,102.3354,3.312,3.315,3.312,100,0,0,0,113.7,176.6,176.6
"2022-06-12 01:35:00",2977699,0.3526667,336.6564,54.63056,0.1825182,0.67,0,1.278667,62.33849,6.159351,0.07144851,1.42,0,-999,0,10.1,84.4,10.25,10.38,0.2,0,0,9.39,13.24,0.2,102.3357,3.312,3.312,3.31,100,0,0,0,113.7,176.6,176.6
"2022-06-12 01:36:00",2977700,0.2213333,26.19227,57.36915,0.1084353,0.47,0,1.177333,74.5328,2.57812,0.04781445,1.3,0,-999,0,10.1,85.7,10.21,10.35,0.2,0,0,9.38,13.24,0.2,102.3385,3.311,3.314,3.311,100,0,0,0,113.7,176.6,176.6
"2022-06-12 01:37:00",2977701,0.2866667,316.7812,51.57506,0.1184717,0.51,0,0.8246667,83.61078,6.873988,0.1855754,1.13,0,-999,0,10.17,86.6,10.37,10.46,0.2,0,0,9.37,13.24,0.2,102.3381,3.31,3.312,3.308,100,0,0,0,113.7,176.6,176.6
"2022-06-12 01:38:00",2977702,0.218,237.7613,56.72213,0.09267861,0.48,0,0.8466666,73.54047,7.045222,0.08145893,1,0,-999,0,10.27,87.3,10.47,10.58,0.2,0,0,9.37,13.24,0.2,102.3415,3.311,3.311,3.308,100,0,0,0,113.7,176.6,176.6
"2022-06-12 01:39:00",2977703,0.3466667,261.328,17.53223,0.1142317,0.57,0,0.7853332,77.26257,7.092646,0.05499899,0.91,0,-999,0,10.3,87.6,10.52,10.64,0.2,0,0,9.35,13.24,0.2,102.3365,3.31,3.311,3.308,100,0,0,0,113.7,176.6,176.6
"2022-06-12 01:40:00",2977704,0.2026667,239.6806,45.87466,0.08698403,0.32,0,0.804,84.93592,4.84877,0.04896257,0.87,0,-999,0,10.35,87.7,10.55,10.7,0.2,0,0,9.35,13.24,0.2,102.3369,3.311,3.312,3.309,100,0,0,0,113.7,176.6,176.6
"2022-06-12 01:41:00",2977705,0.4166667,228.6943,27.79473,0.1106747,0.61,0,0.8633333,93.67205,5.246796,0.08162244,0.98,0,-999,0,10.41,87.6,10.62,10.76,0.2,0,0,9.35,13.24,0.2,102.3347,3.312,3.312,3.31,100,0,0,0,113.7,176.6,176.6
"2022-06-12 01:42:00",2977706,0.408,196.4159,17.5754,0.2047828,0.81,0,0.9339999,103.5364,5.147975,0.03241399,0.99,0,-999,0,10.5,87.3,10.66,10.81,0.2,0,0,9.35,13.24,0.2,102.3352,3.311,3.314,3.309,100,0,0,0,113.7,176.6,176.6
"2022-06-12 01:43:00",2977707,0.7246666,214.3476,8.601284,0.1042348,0.93,0,0.9433333,113.1963,3.933779,0.06062634,1.04,0,-999,0,10.53,87.1,10.76,10.82,0.2,0,0,9.33,13.24,0.2,102.3361,3.31,3.312,3.309,100,0,0,0,113.7,176.6,176.6
"2022-06-12 01:44:00",2977708,0.7793334,203.1949,8.089494,0.1010259,0.92,0,0.9386666,125.2638,3.509544,0.04702718,1.01,0,-999,0,10.73,87,11.02,11.03,0.2,0,0,9.32,13.25,0.2,102.3352,3.311,3.312,3.31,100,0,0,0,113.7,176.6,176.6
"2022-06-12 01:45:00",2977709,1.054,199.0677,6.144835,0.09789792,1.25,0,1.014667,136.8,2.925439,0.08800507,1.16,0,-999,0,10.81,87.6,11.1,11.21,0.2,0,0,9.32,13.25,0.2,102.3371,3.311,3.312,3.31,100,0,0,0,113.7,176.6,176.6
"2022-06-12 01:46:00",2977710,0.932,192.789,9.275306,0.1029693,1.12,0,1.299333,143.3343,4.612683,0.1044647,1.48,0,-999,0,10.75,87.4,10.93,11.14,0.2,0,0,9.3,13.24,0.2,102.335,3.311,3.312,3.309,100,0,0,0,113.7,176.6,176.6
"2022-06-12 01:47:00",2977711,1.002,190.3277,6.58755,0.09202899,1.19,0,1.376667,141.3335,3.003441,0.08055364,1.54,0,-999,0,10.6,86.5,10.82,10.97,0.2,0,0,9.3,13.24,0.2,102.332,3.309,3.312,3.308,100,0,0,0,113.7,176.6,176.6